QPF
0.00 0.00 0.00 0.00 0.00 0.00 0.00 0.00 0.01 0.01 0.01 0.02 0.11 0.15 0.10 0.06 0.04 0.05 0.05 0.07 0.09 0.09 0.06 0.04 0.04 0.05 0.05 0.07 0.07 0.07 0.07 0.07 0.07 0.08 0.09 0.09 0.08 0.08 0.09 0.08 0.07 0.06 0.06 0.05
0.00 0.00 0.01 0.01 0.01 0.01 0.01 0.01 0.01 0.02 0.02 0.03 0.11 0.11 0.08 0.06 0.03 0.03 0.06 0.06 0.09 0.09 0.06 0.05 0.04 0.05 0.05 0.07 0.09 0.07 0.07 0.07 0.08 0.08 0.10 0.13 0.12 0.12 0.15 0.12 0.09 0.07 0.08 0.07
0.01 0.01 0.01 0.01 0.01 0.01 0.01 0.01 0.02 0.02 0.03 0.04 0.06 0.09 0.07 0.05 0.03 0.02 0.05 0.07 0.09 0.10 0.07 0.05 0.04 0.03 0.02 0.03 0.05 0.07 0.07 0.06 0.06 0.06 0.07 0.08 0.11 0.11 0.11 0.09 0.08 0.06 0.06 0.07
0.01 0.01 0.01 0.01 0.01 0.01 0.02 0.02 0.02 0.02 0.03 0.04 0.04 0.07 0.05 0.04 0.03 0.03 0.06 0.10 0.14 0.12 0.08 0.06 0.05 0.04 0.03 0.03 0.04 0.05 0.05 0.05 0.05 0.05 0.06 0.08 0.09 0.09 0.08 0.07 0.07 0.05 0.06 0.07
0.02 0.01 0.01 0.01 0.01 0.01 0.02 0.02 0.03 0.05 0.05 0.04 0.03 0.04 0.04 0.04 0.04 0.06 0.07 0.09 0.13 0.14 0.12 0.08 0.06 0.05 0.04 0.04 0.04 0.06 0.07 0.06 0.07 0.06 0.05 0.06 0.07 0.08 0.07 0.07 0.07 0.05 0.06 0.07
0.04 0.03 0.03 0.02 0.01 0.01 0.02 0.04 0.04 0.05 0.04 0.05 0.09 0.10 0.06 0.03 0.04 0.07 0.09 0.10 0.11 0.11 0.11 0.10 0.08 0.06 0.05 0.06 0.07 0.08 0.09 0.07 0.06 0.05 0.06 0.05 0.05 0.05 0.05 0.06 0.08 0.07 0.07 0.08
0.05 0.04 0.04 0.02 0.02 0.02 0.04 0.05 0.04 0.05 0.05 0.04 0.08 0.15 0.10 0.06 0.05 0.05 0.06 0.08 0.09 0.10 0.09 0.09 0.09 0.08 0.07 0.07 0.07 0.07 0.08 0.06 0.05 0.07 0.07 0.07 0.06 0.05 0.04 0.05 0.07 0.07 0.06 0.07
0.05 0.05 0.03 0.03 0.02 0.03 0.04 0.03 0.03 0.04 0.04 0.04 0.04 0.07 0.07 0.04 0.02 0.02 0.05 0.08 0.08 0.07 0.06 0.07 0.08 0.09 0.08 0.08 0.08 0.09 0.09 0.07 0.07 0.11 0.10 0.08 0.08 0.06 0.05 0.05 0.05 0.06 0.06 0.07
0.04 0.05 0.03 0.02 0.02 0.02 0.02 0.02 0.02 0.02 0.02 0.03 0.03 0.04 0.07 0.05 0.03 0.02 0.02 0.05 0.08 0.07 0.06 0.07 0.08 0.09 0.11 0.11 0.09 0.11 0.11 0.09 0.08 0.09 0.10 0.09 0.09 0.08 0.06 0.05 0.05 0.06 0.06 0.05
0.03 0.03 0.02 0.01 0.02 0.02 0.01 0.01 0.01 0.01 0.01 0.01 0.01 0.02 0.06 0.05 0.03 0.02 0.02 0.03 0.06 0.06 0.06 0.08 0.10 0.08 0.08 0.09 0.08 0.09 0.09 0.10 0.11 0.10 0.08 0.09 0.09 0.08 0.07 0.05 0.05 0.05 0.05 0.04
0.02 0.03 0.03 0.02 0.01 0.01 0.01 0.00 0.00 0.00 0.00 0.00 0.01 0.02 0.03 0.03 0.03 0.03 0.02 0.03 0.05 0.05 0.06 0.07 0.07 0.07 0.07 0.07 0.09 0.10 0.10 0.08 0.08 0.07 0.06 0.06 0.06 0.06 0.06 0.05 0.05 0.04 0.04 0.04
0.01 0.02 0.02 0.02 0.01 0.01 0.00 0.01 0.01 0.00 0.00 0.00 0.00 0.01 0.01 0.02 0.02 0.02 0.02 0.03 0.04 0.05 0.06 0.07 0.07 0.07 0.07 0.07 0.08 0.08 0.09 0.08 0.07 0.06 0.05 0.04 0.03 0.03 0.03 0.03 0.03 0.03 0.04 0.04
0.01 0.01 0.01 0.01 0.00 0.00 0.00 0.01 0.00 0.01 0.01 0.01 0.01 0.01 0.01 0.02 0.02 0.03 0.03 0.02 0.03 0.04 0.06 0.07 0.06 0.06 0.07 0.07 0.07 0.07 0.07 0.07 0.07 0.05 0.04 0.03 0.03 0.03 0.03 0.02 0.02 0.03 0.04 0.05
0.01 0.01 0.01 0.00 0.00 0.00 0.00 0.00 0.00 0.00 0.01 0.01 0.01 0.01 0.02 0.02 0.02 0.03 0.03 0.04 0.03 0.04 0.06 0.06 0.06 0.05 0.05 0.06 0.08 0.08 0.07 0.07 0.08 0.06 0.05 0.04 0.04 0.03 0.03 0.02 0.02 0.03 0.03 0.04
0.01 0.00 0.00 0.00 0.00 0.00 0.00 0.00 0.01 0.01 0.01 0.02 0.02 0.03 0.03 0.03 0.03 0.02 0.03 0.04 0.04 0.04 0.05 0.06 0.05 0.06 0.06 0.05 0.06 0.07 0.06 0.05 0.06 0.05 0.05 0.05 0.05 0.04 0.03 0.03 0.03 0.04 0.05 0.06
0.01 0.01 0.01 0.01 0.01 0.00 0.00 0.01 0.01 0.02 0.02 0.02 0.03 0.04 0.06 0.06 0.04 0.03 0.03 0.04 0.04 0.04 0.04 0.05 0.05 0.06 0.06 0.05 0.06 0.08 0.05 0.04 0.04 0.05 0.06 0.07 0.08 0.05 0.04 0.04 0.05 0.06 0.06 0.06
0.01 0.01 0.00 0.00 0.00 0.00 0.00 0.01 0.01 0.01 0.02 0.03 0.04 0.04 0.05 0.06 0.05 0.04 0.03 0.04 0.05 0.05 0.03 0.03 0.03 0.05 0.06 0.05 0.07 0.09 0.06 0.04 0.04 0.04 0.07 0.08 0.10 0.08 0.05 0.05 0.05 0.05 0.04 0.04
0.02 0.01 0.00 0.00 0.00 0.00 0.00 0.00 0.01 0.02 0.01 0.01 0.03 0.04 0.04 0.05 0.05 0.03 0.02 0.02 0.02 0.03 0.03 0.02 0.03 0.04 0.04 0.04 0.06 0.08 0.07 0.05 0.04 0.05 0.07 0.08 0.08 0.06 0.05 0.04 0.03 0.02 0.02 0.02
0.01 0.01 0.01 0.01 0.01 0.01 0.01 0.01 0.01 0.01 0.00 0.01 0.02 0.04 0.04 0.05 0.05 0.03 0.02 0.02 0.02 0.02 0.02 0.02 0.02 0.03 0.03 0.04 0.05 0.06 0.06 0.05 0.04 0.05 0.07 0.08 0.07 0.04 0.03 0.03 0.03 0.03 0.03 0.02
0.01 0.01 0.01 0.01 0.01 0.01 0.01 0.01 0.01 0.01 0.01 0.01 0.03 0.04 0.05 0.06 0.06 0.04 0.03 0.02 0.02 0.01 0.01 0.02 0.02 0.03 0.03 0.04 0.05 0.06 0.06 0.06 0.05 0.06 0.07 0.07 0.06 0.04 0.03 0.03 0.03 0.03 0.02 0.02
0.02 0.02 0.01 0.01 0.01 0.02 0.02 0.02 0.01 0.01 0.01 0.01 0.02 0.03 0.04 0.06 0.06 0.05 0.03 0.02 0.02 0.01 0.01 0.02 0.02 0.02 0.02 0.03 0.04 0.04 0.06 0.06 0.05 0.05 0.05 0.06 0.05 0.03 0.02 0.02 0.02 0.02 0.02 0.01
0.01 0.01 0.01 0.01 0.02 0.03 0.03 0.02 0.01 0.01 0.02 0.02 0.01 0.02 0.03 0.04 0.03 0.03 0.02 0.02 0.01 0.01 0.02 0.03 0.02 0.02 0.02 0.03 0.04 0.04 0.04 0.05 0.04 0.04 0.04 0.05 0.04 0.03 0.02 0.01 0.01 0.01 0.01 0.01
0.01 0.01 0.01 0.01 0.02 0.03 0.02 0.02 0.01 0.01 0.02 0.02 0.02 0.02 0.03 0.03 0.02 0.02 0.02 0.02 0.03 0.03 0.03 0.02 0.02 0.01 0.02 0.03 0.04 0.04 0.04 0.04 0.04 0.04 0.04 0.04 0.03 0.03 0.03 0.02 0.01 0.01 0.01 0.01
0.01 0.01 0.01 0.01 0.02 0.02 0.02 0.02 0.01 0.02 0.02 0.03 0.02 0.02 0.02 0.03 0.03 0.02 0.02 0.03 0.04 0.04 0.03 0.02 0.02 0.02 0.02 0.03 0.03 0.02 0.02 0.03 0.03 0.03 0.03 0.03 0.03 0.03 0.03 0.03 0.02 0.01 0.01 0.01
0.02 0.02 0.02 0.02 0.03 0.03 0.03 0.03 0.02 0.02 0.03 0.03 0.03 0.02 0.01 0.03 0.03 0.04 0.03 0.01 0.01 0.01 0.01 0.01 0.01 0.02 0.02 0.02 0.02 0.02 0.03 0.04 0.03 0.02 0.02 0.03 0.03 0.03 0.03 0.03 0.02 0.02 0.02 0.02
0.03 0.02 0.02 0.03 0.04 0.03 0.03 0.03 0.04 0.04 0.03 0.03 0.03 0.03 0.02 0.02 0.02 0.03 0.03 0.02 0.01 0.01 0.01 0.01 0.01 0.02 0.02 0.03 0.03 0.03 0.04 0.03 0.02 0.02 0.03 0.03 0.03 0.03 0.03 0.03 0.04 0.03 0.03 0.03
0.04 0.04 0.04 0.04 0.04 0.04 0.04 0.04 0.05 0.05 0.04 0.03 0.03 0.03 0.02 0.02 0.01 0.01 0.02 0.02 0.01 0.01 0.01 0.01 0.01 0.01 0.02 0.02 0.02 0.03 0.04 0.03 0.03 0.03 0.04 0.04 0.03 0.03 0.03 0.04 0.05 0.05 0.04 0.04
MSLP
1015.34 1015.25 1015.09 1014.86 1014.56 1014.20 1013.74 1013.16 1012.48 1011.70 1010.86 1010.02 1009.24 1008.59 1008.13 1007.87 1007.81 1007.92 1008.14 1008.41 1008.66 1008.83 1008.91 1008.89 1008.80 1008.69 1008.61 1008.63 1008.78 1009.08 1009.52 1010.06 1010.67 1011.29 1011.87 1012.37 1012.78 1013.10 1013.33 1013.51 1013.67 1013.82 1014.00 1014.20
1015.25 1015.12 1014.86 1014.48 1014.00 1013.41 1012.74 1011.98 1011.15 1010.27 1009.40 1008.57 1007.85 1007.29 1006.92 1006.77 1006.80 1007.01 1007.32 1007.68 1008.02 1008.30 1008.48 1008.58 1008.60 1008.59 1008.59 1008.65 1008.81 1009.09 1009.49 1009.98 1010.54 1011.12 1011.68 1012.20 1012.63 1012.99 1013.28 1013.51 1013.70 1013.87 1014.04 1014.22
1014.99 1014.84 1014.53 1014.05 1013.44 1012.71 1011.88 1010.98 1010.03 1009.06 1008.12 1007.26 1006.53 1005.99 1005.64 1005.51 1005.58 1005.83 1006.20 1006.64 1007.09 1007.50 1007.84 1008.09 1008.27 1008.40 1008.52 1008.66 1008.86 1009.13 1009.50 1009.94 1010.44 1010.97 1011.50 1012.01 1012.47 1012.87 1013.21 1013.50 1013.73 1013.94 1014.12 1014.29
1014.53 1014.38 1014.03 1013.51 1012.84 1012.04 1011.14 1010.15 1009.12 1008.09 1007.09 1006.17 1005.39 1004.79 1004.40 1004.23 1004.27 1004.51 1004.90 1005.40 1005.94 1006.49 1006.99 1007.43 1007.80 1008.11 1008.37 1008.62 1008.87 1009.16 1009.50 1009.89 1010.34 1010.82 1011.32 1011.81 1012.29 1012.73 1013.12 1013.46 1013.75 1014.00 1014.20 1014.36
1013.86 1013.67 1013.31 1012.79 1012.12 1011.32 1010.41 1009.42 1008.38 1007.32 1006.28 1005.31 1004.47 1003.78 1003.30 1003.04 1003.00 1003.18 1003.55 1004.07 1004.68 1005.35 1006.01 1006.63 1007.19 1007.68 1008.10 1008.47 1008.80 1009.12 1009.45 1009.81 1010.21 1010.64 1011.11 1011.59 1012.08 1012.56 1013.00 1013.39 1013.73 1014.02 1014.24 1014.41
1012.93 1012.70 1012.32 1011.82 1011.19 1010.45 1009.61 1008.68 1007.69 1006.67 1005.64 1004.64 1003.74 1002.98 1002.39 1002.01 1001.86 1001.95 1002.26 1002.76 1003.41 1004.15 1004.94 1005.72 1006.45 1007.11 1007.68 1008.17 1008.59 1008.96 1009.31 1009.65 1010.02 1010.43 1010.88 1011.36 1011.86 1012.36 1012.85 1013.30 1013.68 1014.00 1014.24 1014.42
1011.77 1011.46 1011.06 1010.59 1010.03 1009.39 1008.67 1007.87 1006.99 1006.06 1005.09 1004.12 1003.19 1002.36 1001.68 1001.18 1000.92 1000.89 1001.11 1001.56 1002.20 1002.97 1003.84 1004.73 1005.60 1006.40 1007.11 1007.72 1008.23 1008.66 1009.05 1009.41 1009.78 1010.19 1010.64 1011.13 1011.65 1012.19 1012.71 1013.20 1013.62 1013.97 1014.22 1014.40
1010.41 1010.01 1009.58 1009.13 1008.66 1008.14 1007.58 1006.94 1006.23 1005.44 1004.58 1003.68 1002.77 1001.92 1001.17 1000.58 1000.19 1000.05 1000.16 1000.52 1001.11 1001.88 1002.76 1003.72 1004.67 1005.58 1006.40 1007.11 1007.72 1008.23 1008.68 1009.09 1009.50 1009.93 1010.40 1010.92 1011.48 1012.05 1012.61 1013.13 1013.59 1013.95 1014.21 1014.38
1008.96 1008.46 1008.00 1007.58 1007.19 1006.80 1006.40 1005.95 1005.43 1004.81 1004.10 1003.30 1002.46 1001.62 1000.84 1000.18 999.70 999.44 999.44 999.70 1000.20 1000.91 1001.77 1002.73 1003.72 1004.69 1005.59 1006.39 1007.08 1007.68 1008.21 1008.70 1009.18 1009.67 1010.20 1010.77 1011.37 1011.99 1012.58 1013.13 1013.60 1013.98 1014.24 1014.40
1007.53 1006.95 1006.46 1006.07 1005.76 1005.50 1005.26 1004.99 1004.65 1004.21 1003.66 1003.00 1002.24 1001.45 1000.68 999.98 999.43 999.08 998.96 999.11 999.51 1000.13 1000.92 1001.84 1002.82 1003.80 1004.74 1005.61 1006.38 1007.07 1007.70 1008.28 1008.84 1009.42 1010.03 1010.67 1011.33 1011.99 1012.62 1013.19 1013.68 1014.06 1014.32 1014.48
1006.22 1005.60 1005.11 1004.75 1004.52 1004.37 1004.27 1004.16 1003.99 1003.71 1003.31 1002.78 1002.13 1001.40 1000.66 999.96 999.36 998.94 998.73 998.77 999.06 999.57 1000.27 1001.11 1002.04 1003.00 1003.95 1004.85 1005.68 1006.45 1007.17 1007.85 1008.52 1009.19 1009.89 1010.60 1011.32 1012.02 1012.69 1013.29 1013.79 1014.18 1014.45 1014.61
1005.11 1004.50 1004.04 1003.73 1003.57 1003.53 1003.54 1003.55 1003.51 1003.36 1003.09 1002.68 1002.12 1001.47 1000.77 1000.09 999.48 999.02 998.74 998.69 998.87 999.27 999.86 1000.61 1001.46 1002.36 1003.28 1004.19 1005.06 1005.89 1006.68 1007.45 1008.21 1008.97 1009.75 1010.53 1011.31 1012.06 1012.76 1013.38 1013.90 1014.30 1014.59 1014.76
1004.20 1003.66 1003.27 1003.04 1002.96 1002.99 1003.09 1003.19 1003.24 1003.19 1003.01 1002.68 1002.22 1001.64 1001.00 1000.35 999.76 999.28 998.96 998.84 998.93 999.23 999.72 1000.36 1001.11 1001.94 1002.81 1003.69 1004.56 1005.42 1006.26 1007.10 1007.93 1008.76 1009.60 1010.44 1011.26 1012.05 1012.77 1013.41 1013.95 1014.37 1014.69 1014.90
1003.45 1003.02 1002.73 1002.60 1002.61 1002.72 1002.88 1003.05 1003.16 1003.17 1003.06 1002.80 1002.40 1001.89 1001.32 1000.72 1000.17 999.70 999.37 999.21 999.24 999.45 999.84 1000.38 1001.03 1001.77 1002.57 1003.40 1004.25 1005.10 1005.96 1006.82 1007.69 1008.57 1009.45 1010.32 1011.16 1011.96 1012.70 1013.36 1013.91 1014.37 1014.72 1014.98
1002.76 1002.48 1002.34 1002.33 1002.43 1002.62 1002.84 1003.05 1003.21 1003.26 1003.19 1002.99 1002.65 1002.21 1001.71 1001.18 1000.68 1000.25 999.94 999.76 999.76 999.91 1000.21 1000.66 1001.21 1001.86 1002.57 1003.33 1004.12 1004.94 1005.78 1006.64 1007.52 1008.40 1009.29 1010.17 1011.02 1011.82 1012.56 1013.23 1013.80 1014.29 1014.68 1015.00
1002.07 1001.96 1001.96 1002.09 1002.30 1002.58 1002.86 1003.12 1003.31 1003.40 1003.37 1003.21 1002.94 1002.57 1002.14 1001.69 1001.26 1000.89 1000.62 1000.46 1000.44 1000.55 1000.80 1001.16 1001.62 1002.17 1002.79 1003.47 1004.20 1004.96 1005.76 1006.59 1007.44 1008.31 1009.18 1010.04 1010.88 1011.67 1012.40 1013.07 1013.66 1014.17 1014.61 1015.00
1001.32 1001.37 1001.53 1001.80 1002.13 1002.49 1002.85 1003.16 1003.40 1003.53 1003.55 1003.45 1003.24 1002.95 1002.61 1002.25 1001.90 1001.61 1001.38 1001.26 1001.24 1001.33 1001.52 1001.82 1002.20 1002.66 1003.20 1003.79 1004.44 1005.14 1005.89 1006.67 1007.48 1008.32 1009.16 1010.00 1010.80 1011.57 1012.29 1012.95 1013.54 1014.08 1014.56 1015.00
1000.52 1000.71 1001.02 1001.41 1001.86 1002.32 1002.76 1003.14 1003.44 1003.63 1003.72 1003.68 1003.56 1003.35 1003.10 1002.84 1002.58 1002.36 1002.19 1002.10 1002.10 1002.17 1002.33 1002.57 1002.89 1003.27 1003.72 1004.24 1004.82 1005.46 1006.15 1006.89 1007.66 1008.46 1009.27 1010.08 1010.85 1011.60 1012.30 1012.94 1013.54 1014.09 1014.60 1015.08
999.74 1000.04 1000.46 1000.96 1001.52 1002.08 1002.60 1003.06 1003.44 1003.71 1003.87 1003.92 1003.88 1003.77 1003.61 1003.44 1003.27 1003.12 1003.01 1002.96 1002.96 1003.03 1003.15 1003.35 1003.60 1003.92 1004.31 1004.76 1005.28 1005.87 1006.52 1007.22 1007.97 1008.74 1009.53 1010.31 1011.07 1011.80 1012.48 1013.11 1013.70 1014.25 1014.77 1015.28
999.07 999.44 999.94 1000.53 1001.16 1001.81 1002.42 1002.96 1003.42 1003.77 1004.02 1004.16 1004.21 1004.20 1004.14 1004.05 1003.95 1003.87 1003.80 1003.77 1003.78 1003.84 1003.94 1004.09 1004.29 1004.56 1004.89 1005.30 1005.78 1006.33 1006.96 1007.64 1008.37 1009.14 1009.92 1010.70 1011.45 1012.16 1012.84 1013.46 1014.04 1014.59 1015.11 1015.61
998.61 999.01 999.55 1000.19 1000.88 1001.58 1002.26 1002.87 1003.40 1003.84 1004.17 1004.40 1004.55 1004.62 1004.65 1004.64 1004.61 1004.57 1004.55 1004.53 1004.54 1004.58 1004.65 1004.76 1004.93 1005.15 1005.44 1005.81 1006.26 1006.80 1007.42 1008.10 1008.84 1009.61 1010.40 1011.19 1011.95 1012.67 1013.34 1013.96 1014.53 1015.07 1015.58 1016.08
998.41 998.81 999.35 1000.00 1000.71 1001.44 1002.16 1002.82 1003.41 1003.91 1004.32 1004.63 1004.86 1005.02 1005.12 1005.18 1005.21 1005.22 1005.22 1005.22 1005.23 1005.25 1005.29 1005.37 1005.50 1005.68 1005.94 1006.29 1006.73 1007.26 1007.88 1008.57 1009.32 1010.12 1010.93 1011.73 1012.51 1013.24 1013.92 1014.54 1015.12 1015.65 1016.14 1016.63
998.48 998.84 999.36 999.98 1000.68 1001.40 1002.12 1002.80 1003.43 1003.97 1004.44 1004.82 1005.12 1005.35 1005.52 1005.64 1005.73 1005.78 1005.81 1005.83 1005.83 1005.84 1005.87 1005.92 1006.02 1006.19 1006.42 1006.75 1007.18 1007.71 1008.33 1009.03 1009.80 1010.61 1011.44 1012.27 1013.07 1013.82 1014.52 1015.15 1015.73 1016.26 1016.75 1017.22
998.77 999.09 999.55 1000.12 1000.77 1001.45 1002.14 1002.81 1003.43 1003.99 1004.49 1004.92 1005.28 1005.58 1005.82 1006.01 1006.15 1006.25 1006.32 1006.36 1006.38 1006.40 1006.42 1006.46 1006.55 1006.70 1006.92 1007.23 1007.65 1008.17 1008.79 1009.49 1010.27 1011.09 1011.94 1012.78 1013.60 1014.37 1015.08 1015.73 1016.32 1016.86 1017.35 1017.82
999.23 999.49 999.88 1000.37 1000.94 1001.55 1002.17 1002.80 1003.39 1003.95 1004.46 1004.92 1005.33 1005.69 1006.00 1006.25 1006.46 1006.63 1006.75 1006.84 1006.89 1006.93 1006.97 1007.02 1007.11 1007.25 1007.47 1007.77 1008.18 1008.68 1009.29 1009.99 1010.75 1011.57 1012.42 1013.26 1014.08 1014.87 1015.59 1016.26 1016.87 1017.42 1017.92 1018.40
999.79 999.99 1000.29 1000.69 1001.15 1001.67 1002.21 1002.76 1003.31 1003.84 1004.35 1004.83 1005.28 1005.69 1006.06 1006.39 1006.67 1006.91 1007.11 1007.26 1007.37 1007.46 1007.54 1007.63 1007.74 1007.89 1008.11 1008.41 1008.80 1009.29 1009.87 1010.55 1011.29 1012.08 1012.90 1013.74 1014.55 1015.33 1016.06 1016.74 1017.36 1017.93 1018.45 1018.94
1000.41 1000.54 1000.76 1001.05 1001.40 1001.81 1002.25 1002.72 1003.20 1003.69 1004.18 1004.67 1005.14 1005.60 1006.03 1006.43 1006.80 1007.12 1007.40 1007.64 1007.83 1007.99 1008.13 1008.26 1008.41 1008.60 1008.83 1009.14 1009.53 1010.00 1010.56 1011.19 1011.90 1012.65 1013.44 1014.24 1015.03 1015.79 1016.52 1017.19 1017.82 1018.41 1018.95 1019.45
Thickness
5688 5693 5695 5693 5694 5695 5687 5680 5670 5672 5673 5678 5684 5687 5689 5689 5688 5686 5685 5685 5684 5682 5681 5681 5681 5682 5684 5684 5683 5682 5680 5678 5678 5678 5679 5677 5676 5675 5675 5674 5674 5673 5672 5672
5677 5686 5686 5683 5686 5687 5684 5683 5676 5672 5669 5678 5679 5681 5679 5679 5678 5675 5675 5675 5675 5675 5674 5673 5673 5674 5673 5674 5674 5673 5671 5670 5670 5669 5669 5669 5668 5667 5665 5665 5665 5665 5666 5666
5657 5671 5671 5659 5670 5674 5672 5672 5670 5662 5662 5668 5667 5668 5668 5669 5669 5668 5667 5666 5665 5665 5666 5665 5665 5665 5665 5666 5666 5664 5662 5662 5662 5661 5660 5660 5660 5659 5658 5658 5658 5658 5659 5659
5646 5653 5641 5653 5672 5673 5666 5662 5663 5662 5661 5661 5660 5659 5659 5660 5659 5659 5659 5659 5658 5657 5657 5657 5657 5657 5657 5657 5657 5656 5654 5654 5653 5652 5652 5652 5651 5651 5652 5652 5652 5652 5653 5654
5634 5634 5640 5654 5664 5664 5656 5648 5654 5653 5653 5653 5654 5652 5650 5654 5654 5652 5652 5652 5652 5651 5651 5651 5649 5648 5647 5646 5647 5646 5645 5644 5644 5643 5643 5643 5643 5644 5644 5645 5645 5646 5647 5648
5633 5630 5628 5643 5662 5668 5656 5637 5646 5647 5644 5645 5644 5633 5634 5643 5644 5644 5645 5645 5646 5646 5645 5643 5642 5641 5638 5637 5637 5637 5637 5637 5636 5636 5635 5635 5636 5636 5637 5638 5639 5640 5641 5643
5627 5624 5629 5648 5660 5660 5634 5630 5641 5641 5640 5638 5634 5630 5632 5636 5636 5636 5637 5638 5638 5638 5637 5636 5635 5633 5630 5630 5630 5631 5631 5630 5629 5629 5628 5628 5628 5629 5630 5631 5632 5632 5634 5636
5621 5617 5621 5647 5648 5638 5633 5638 5638 5637 5636 5633 5631 5631 5629 5628 5628 5628 5628 5629 5629 5628 5628 5628 5627 5625 5623 5623 5625 5625 5624 5623 5622 5622 5622 5622 5620 5621 5622 5623 5624 5624 5626 5628
5623 5623 5633 5641 5639 5639 5638 5634 5634 5632 5631 5629 5626 5624 5623 5621 5621 5621 5620 5620 5620 5620 5619 5619 5618 5617 5615 5617 5618 5618 5616 5615 5615 5614 5614 5614 5613 5613 5613 5615 5616 5618 5619 5621
5622 5626 5631 5633 5634 5635 5634 5632 5631 5628 5626 5623 5619 5617 5615 5614 5613 5612 5613 5612 5612 5610 5609 5609 5609 5609 5608 5610 5610 5609 5607 5606 5606 5606 5606 5606 5606 5605 5606 5607 5609 5611 5613 5614
5616 5621 5624 5627 5628 5627 5627 5627 5626 5624 5621 5617 5614 5611 5609 5605 5605 5605 5605 5605 5604 5602 5602 5602 5602 5602 5603 5603 5602 5601 5599 5599 5598 5598 5597 5597 5597 5598 5600 5601 5604 5606 5607 5608
5610 5616 5615 5615 5621 5623 5621 5619 5619 5617 5614 5612 5610 5606 5604 5601 5600 5599 5598 5598 5597 5596 5595 5595 5595 5595 5596 5596 5595 5593 5592 5592 5591 5590 5591 5591 5591 5592 5594 5595 5599 5601 5602 5603
5618 5620 5617 5618 5618 5618 5616 5616 5614 5612 5609 5605 5604 5602 5599 5596 5595 5594 5593 5592 5591 5591 5590 5589 5589 5589 5590 5590 5589 5587 5585 5585 5585 5585 5585 5585 5585 5585 5585 5588 5591 5593 5595 5596
5620 5617 5613 5613 5611 5613 5613 5612 5610 5606 5603 5601 5598 5596 5594 5591 5590 5589 5587 5587 5586 5585 5585 5584 5584 5584 5585 5584 5583 5581 5580 5580 5580 5579 5579 5579 5580 5580 5580 5581 5582 5584 5586 5588
5615 5613 5610 5610 5609 5608 5607 5604 5601 5597 5596 5595 5593 5591 5588 5586 5584 5584 5583 5583 5581 5580 5579 5579 5579 5579 5580 5579 5578 5576 5576 5575 5575 5574 5574 5574 5575 5575 5575 5576 5577 5577 5578 5579
5609 5608 5606 5604 5602 5601 5599 5596 5592 5590 5590 5589 5587 5586 5585 5583 5581 5580 5579 5578 5575 5574 5574 5573 5573 5575 5575 5574 5573 5572 5571 5571 5571 5569 5569 5569 5570 5570 5570 5570 5570 5571 5571 5572
5602 5599 5598 5597 5596 5595 5593 5591 5588 5586 5585 5584 5583 5582 5580 5578 5576 5574 5573 5572 5571 5570 5569 5569 5569 5571 5571 5570 5569 5567 5566 5565 5566 5565 5564 5564 5564 5564 5564 5564 5564 5564 5565 5567
5603 5600 5598 5595 5592 5590 5589 5588 5586 5584 5581 5580 5579 5578 5576 5573 5570 5569 5567 5567 5566 5565 5565 5565 5566 5566 5566 5565 5564 5563 5562 5561 5560 5560 5559 5559 5559 5559 5558 5558 5559 5559 5559 5561
5600 5597 5595 5593 5591 5588 5585 5583 5581 5579 5578 5576 5574 5572 5571 5569 5567 5565 5564 5562 5560 5560 5561 5562 5562 5562 5561 5560 5559 5558 5558 5557 5556 5555 5555 5554 5554 5553 5553 5553 5553 5553 5553 5554
5595 5594 5591 5589 5587 5584 5580 5579 5577 5575 5574 5572 5570 5567 5566 5565 5564 5561 5559 5557 5556 5557 5558 5558 5558 5557 5556 5556 5555 5554 5553 5553 5552 5550 5550 5549 5549 5548 5548 5548 5548 5548 5548 5547
5589 5588 5586 5583 5580 5579 5577 5575 5573 5570 5569 5568 5565 5563 5561 5560 5559 5557 5554 5553 5555 5555 5555 5554 5553 5552 5551 5551 5550 5550 5549 5548 5547 5546 5545 5544 5544 5543 5543 5543 5543 5542 5542 5542
5582 5581 5579 5577 5574 5572 5571 5569 5568 5567 5565 5563 5562 5560 5557 5555 5555 5553 5552 5551 5552 5552 5551 5550 5549 5548 5547 5547 5545 5544 5544 5544 5543 5542 5541 5540 5539 5538 5537 5537 5537 5536 5536 5536
5575 5575 5573 5571 5569 5567 5566 5564 5563 5562 5560 5559 5557 5555 5553 5552 5551 5549 5548 5548 5548 5548 5547 5546 5545 5544 5543 5542 5540 5539 5539 5538 5537 5536 5535 5535 5534 5533 5532 5531 5530 5530 5530 5530
5569 5569 5568 5566 5565 5562 5559 5558 5558 5557 5556 5556 5554 5553 5551 5548 5547 5547 5547 5547 5546 5545 5543 5542 5541 5540 5539 5537 5535 5534 5533 5532 5531 5530 5530 5529 5529 5528 5526 5526 5525 5525 5525 5525
5565 5565 5563 5561 5558 5555 5554 5554 5553 5552 5551 5550 5550 5549 5548 5547 5545 5544 5543 5543 5542 5541 5539 5538 5537 5536 5534 5532 5530 5529 5528 5527 5526 5525 5525 5524 5523 5522 5521 5520 5520 5519 5519 5519
5561 5559 5557 5556 5554 5552 5551 5549 5548 5547 5546 5544 5544 5544 5544 5543 5543 5541 5540 5540 5539 5537 5535 5534 5533 5532 5529 5528 5526 5525 5523 5523 5522 5520 5519 5518 5517 5516 5515 5515 5515 5514 5514 5513
5555 5554 5552 5551 5550 5549 5548 5546 5544 5543 5542 5541 5539 5538 5538 5538 5538 5537 5536 5535 5534 5533 5532 5531 5529 5528 5526 5524 5522 5520 5518 5518 5517 5515 5514 5513 5512 5511 5510 5510 5509 5509 5509 5508